Helicity
153 120 120 132 106 91 60 76 73 80 59 30 18 19 31 57 63 64 98 135 134 190 229 326 355 371 320 191 117 90 96 127 121 98 77 39 63 50 78 98 156 177 143
194 142 129 127 113 93 71 67 64 56 59 34 24 32 32 21 36 53 68 68 76 110 135 157 128 33 25 26 26 -11 -26 30 61 31 22 27 6 61 -12 22 116 202 199
210 158 155 134 103 95 83 71 57 47 41 33 21 36 50 48 46 42 48 45 63 78 86 69 5 24 46 79 59 22 -3 12 24 45 -26 -5 20 21 71 49 61 66 144
171 169 151 128 104 113 99 86 70 54 37 18 7 13 18 31 33 27 32 42 26 31 41 47 79 112 94 69 88 67 79 96 49 50 78 94 87 46 89 77 97 116 82
195 210 205 151 128 120 113 98 85 68 50 36 26 17 27 31 40 54 61 61 58 64 75 70 62 74 95 85 117 123 157 188 185 230 156 129 150 114 121 132 132 129 136
430 381 245 160 133 100 108 107 91 73 60 51 42 32 35 43 59 71 39 60 69 78 87 117 124 115 121 159 178 128 116 151 152 173 186 208 195 204 175 180 172 146 143
382 407 417 368 301 293 146 141 100 82 66 62 58 53 63 120 184 71 46 22 69 78 76 82 98 110 120 88 115 139 120 86 127 121 124 129 114 109 147 117 129 163 174
402 429 399 366 377 397 278 162 173 174 172 159 163 121 199 200 156 107 57 18 -40 -20 53 99 130 125 159 174 125 119 151 149 155 122 134 152 205 238 227 256 266 232 244
369 385 333 262 295 309 209 196 181 123 144 165 179 249 289 249 271 211 154 104 94 94 208 248 177 137 153 149 137 116 138 247 368 438 524 569 513 534 366 195 201 205 231
354 338 250 217 236 207 180 166 182 198 210 194 232 277 311 306 339 281 178 138 186 286 308 281 328 278 211 170 116 137 123 227 327 412 433 484 389 398 482 303 272 276 273
102 130 83 95 97 155 162 159 168 173 187 225 239 247 269 282 289 308 298 256 311 384 410 401 330 328 282 326 288 288 229 404 532 476 459 439 493 390 344 347 328 245 196
70 95 132 142 139 129 132 139 147 142 153 162 162 165 157 177 245 266 257 233 237 263 263 221 230 297 303 296 276 340 460 367 398 441 466 480 444 407 341 283 267 255 268
97 106 94 96 111 139 140 133 136 153 151 156 156 164 163 151 142 204 234 224 216 196 193 194 186 215 245 275 313 311 300 300 328 366 369 370 345 284 235 248 238 236 246
99 103 113 134 123 136 141 159 146 120 108 108 113 123 132 145 141 133 128 127 144 150 159 178 182 201 244 250 265 300 289 280 262 266 278 280 265 270 271 226 203 153 178
87 94 100 101 105 133 220 210 153 188 146 100 104 110 109 137 162 157 129 126 132 130 122 138 157 166 169 179 194 217 224 231 245 234 231 228 233 221 210 161 151 142 153
79 87 97 99 100 96 103 147 282 258 258 252 231 154 154 167 152 156 148 143 135 116 129 157 178 185 194 189 191 197 210 215 200 181 184 186 191 174 154 145 137 141 138
105 94 81 88 88 92 94 90 101 151 278 310 254 236 221 206 221 225 233 250 220 170 199 205 204 202 198 196 196 195 202 203 186 188 179 168 156 159 162 161 154 144 148
104 130 112 118 114 114 112 105 109 106 112 137 226 223 238 231 221 203 167 151 202 230 215 203 196 189 186 185 184 185 182 176 183 189 192 186 174 164 161 164 159 153 143
134 127 123 125 133 133 127 129 134 141 149 153 145 180 194 214 246 271 263 220 207 196 177 169 162 159 160 164 173 181 191 200 192 178 174 166 161 150 153 148 142 156 134
143 167 160 152 161 170 175 180 184 188 195 207 222 235 204 196 227 230 211 188 173 160 147 145 146 148 152 151 146 140 132 128 125 124 131 134 138 138 140 138 142 136 134
131 142 157 155 167 172 176 184 184 185 190 196 207 217 226 185 181 173 163 164 157 149 142 139 137 141 136 133 132 130 130 127 130 128 126 123 123 128 126 125 123 115 114
133 143 154 163 166 178 178 178 178 176 176 175 166 164 168 151 149 145 146 145 138 135 130 132 132 135 137 136 136 130 129 130 127 125 123 119 120 123 121 122 116 110 111
128 133 139 146 146 147 154 154 152 151 152 152 150 152 157 157 154 146 140 134 132 133 140 133 132 131 128 126 127 131 128 127 122 114 108 110 110 110 110 112 117 112 117
118 123 129 136 142 133 131 129 129 151 144 142 144 141 137 128 125 126 123 123 120 124 123 120 125 138 121 115 113 110 111 110 99 100 98 100 100 97 102 108 110 111 106
104 102 106 109 111 110 109 120 123 125 125 121 116 113 107 105 104 108 110 110 112 113 116 110 110 105 105 102 104 108 107 111 105 94 86 87 100 102 111 106 117 108 110
106 110 109 108 109 108 105 102 103 97 101 95 92 91 91 93 97 99 101 104 104 100 96 92 91 89 81 76 90 97 92 94 94 91 83 84 98 102 106 111 113 108 107
Wind_Speed
32 29 23 16 14 16 19 13 11 9 7 12 12 11 11 13 16 11 8 9 14 14 20 22 43 39 40 39 37 33 30 38 47 51 42 41 35 33 35 31 36 35 39
30 29 21 17 16 17 18 15 8 9 4 4 8 9 8 8 11 12 10 11 14 12 14 17 25 23 23 22 27 29 31 25 28 26 30 31 35 31 30 34 37 40 42
31 29 24 19 18 19 18 17 12 11 9 8 5 2 8 12 11 10 11 13 16 19 20 23 22 11 13 17 21 27 31 32 33 38 31 31 35 34 36 38 41 45 49
29 28 25 21 20 20 19 19 20 18 18 15 16 13 7 3 2 4 7 9 12 13 16 17 16 17 21 22 25 29 36 43 48 47 46 47 51 44 51 49 56 51 52
25 23 21 19 20 21 22 21 22 23 25 22 20 19 15 12 11 5 5 6 7 6 8 11 13 20 24 27 26 30 34 38 42 43 42 46 50 52 54 57 61 63 63
20 22 23 20 18 20 21 27 26 27 28 28 29 27 26 26 17 10 10 13 13 14 16 17 19 22 24 29 35 35 30 32 36 42 45 49 50 53 58 61 63 66 74
16 18 21 23 23 26 21 23 24 35 33 33 31 32 33 35 44 34 17 20 23 21 22 25 29 34 39 38 35 39 45 48 46 46 48 49 54 59 69 75 77 78 83
14 19 24 26 26 26 26 24 28 34 38 38 41 42 32 40 46 47 47 37 45 56 54 57 56 58 59 59 56 55 50 50 59 63 72 80 81 81 76 80 86 88 88
15 21 27 30 27 29 27 32 32 28 29 29 33 35 37 44 52 53 50 42 39 48 47 54 55 58 64 66 67 70 69 59 54 52 51 53 60 71 75 74 80 84 92
27 26 31 31 27 24 26 26 27 28 27 28 31 35 40 48 54 54 50 45 41 37 42 48 53 53 57 62 65 69 69 59 50 56 59 59 64 69 69 70 78 84 85
28 29 30 26 23 22 25 26 24 24 25 26 29 34 39 43 48 49 46 41 37 38 44 48 51 52 54 57 55 59 53 45 50 51 53 56 59 61 65 65 65 66 68
29 26 26 29 28 26 26 29 28 26 27 29 30 33 36 40 42 42 39 35 33 34 38 41 44 47 49 49 47 45 43 41 42 44 48 53 55 57 57 56 56 55 54
31 29 29 30 30 29 30 30 32 32 32 32 33 34 37 38 38 39 38 36 34 33 34 35 38 42 44 46 46 44 41 40 41 43 47 47 48 48 48 52 53 52 53
35 32 32 34 33 33 34 34 33 36 35 35 36 37 37 39 40 39 37 35 34 33 34 36 37 40 42 43 43 45 45 45 43 43 44 45 46 49 52 53 53 53 56
37 36 34 33 33 33 35 36 35 37 37 35 36 37 37 38 40 38 35 35 34 33 34 37 40 42 44 44 45 46 46 46 47 46 47 48 50 51 53 52 53 53 55
38 37 35 33 31 30 30 33 39 37 37 36 36 34 35 35 36 36 36 35 35 35 37 41 43 44 45 46 48 49 49 50 50 50 50 51 52 52 52 52 52 52 54
38 37 35 34 33 32 32 31 31 34 38 39 38 37 36 36 37 37 37 38 39 38 41 42 43 45 47 48 49 50 51 51 50 51 51 52 51 51 51 51 50 49 50
39 38 36 36 35 34 33 34 33 34 35 37 40 39 40 39 39 40 38 38 43 44 43 43 45 47 48 49 49 50 50 50 50 49 49 50 49 48 48 48 48 49 49
41 39 37 35 35 34 34 34 35 35 36 38 39 41 40 40 41 43 43 42 42 43 44 44 45 46 47 47 47 47 47 48 48 47 46 47 48 47 47 47 47 48 49
42 41 39 38 37 37 37 37 37 38 39 41 42 44 44 43 44 45 44 43 43 43 44 44 45 45 45 45 45 45 45 45 46 46 47 47 47 47 48 48 49 50 51
43 42 41 40 40 40 40 40 40 40 40 40 41 44 45 42 43 43 43 44 43 43 43 42 43 44 44 45 45 46 46 46 47 48 48 47 48 48 48 48 49 50 52
45 44 43 42 42 42 42 42 42 42 42 42 42 43 44 42 42 42 42 42 42 41 42 42 43 44 45 46 47 47 46 47 48 48 48 48 49 48 48 49 50 51 52
47 46 45 44 43 43 43 44 44 43 43 43 43 43 43 42 41 41 41 42 42 42 42 43 43 44 44 45 46 46 47 48 48 48 48 48 48 48 48 49 50 52 54
47 46 45 44 44 43 42 42 41 41 41 41 40 40 39 39 39 40 41 42 42 42 42 43 43 45 45 45 46 46 47 49 49 48 48 49 49 48 49 49 50 52 53
45 44 43 43 42 41 41 40 40 39 39 39 39 39 39 40 40 41 42 42 42 43 43 44 45 46 46 46 47 48 49 51 50 49 48 48 49 48 49 50 51 51 51
44 43 42 41 41 41 40 40 39 39 39 39 40 40 41 41 41 41 42 42 43 44 45 46 46 47 47 46 47 49 51 52 52 50 49 48 48 49 49 50 50 50 50
Wind_Direction
225 218 200 218 246 265 277 294 317 344 24 72 82 78 103 128 146 156 167 180 184 242 251 249 260 263 266 263 263 267 264 281 286 289 281 284 293 282 282 272 288 284 285
231 220 208 229 248 261 272 280 304 313 339 29 72 65 50 76 102 123 133 146 161 174 185 196 203 218 224 244 245 251 270 275 279 271 280 264 243 281 270 273 276 279 279
234 215 225 236 251 263 269 272 280 293 294 294 309 50 97 107 110 105 118 131 148 159 166 176 181 201 234 247 248 252 268 276 284 285 250 271 277 278 276 283 283 287 289
221 220 231 243 255 265 271 271 273 280 283 280 283 291 295 317 81 108 118 125 144 155 165 177 195 210 231 249 259 264 265 277 284 286 284 284 288 288 290 288 291 288 289
222 229 239 251 264 269 270 272 274 276 278 281 283 287 291 289 288 255 221 208 204 206 207 210 215 212 217 227 255 258 266 268 269 273 274 281 283 286 285 290 290 293 291
239 252 255 259 272 276 277 270 274 277 278 281 281 285 288 291 289 240 262 276 263 251 256 252 251 247 250 244 237 239 263 270 265 273 275 274 270 278 284 285 289 292 293
258 273 278 281 285 292 300 286 282 275 278 280 284 286 288 291 294 295 264 278 293 285 282 283 283 284 286 283 275 253 248 246 256 274 276 278 286 291 295 293 292 293 295
280 291 293 293 295 299 300 297 292 285 283 282 283 283 291 296 295 295 293 291 292 294 298 298 298 296 298 296 294 292 290 285 284 282 284 289 292 294 294 294 295 295 297
311 310 306 303 306 308 293 283 284 289 293 299 299 299 297 299 299 298 299 299 297 297 304 307 303 302 299 298 295 294 296 299 307 305 304 307 306 308 304 300 297 297 296
316 321 320 315 316 320 300 297 299 302 304 306 310 309 307 304 306 305 304 304 304 305 310 313 316 312 309 307 300 298 297 298 301 302 304 311 313 313 315 311 305 299 300
328 336 325 308 319 324 317 317 317 321 322 319 320 320 321 319 319 319 316 313 308 309 310 314 317 321 320 318 316 309 307 305 307 310 310 315 318 320 320 324 321 315 310
335 334 325 322 324 321 323 322 322 323 324 323 326 326 326 329 333 335 336 335 330 323 321 324 328 332 332 332 332 332 329 324 323 321 319 319 320 322 327 331 335 336 335
333 324 316 325 331 327 332 324 320 322 321 329 328 329 330 332 337 345 347 346 344 340 339 339 338 339 340 343 342 341 339 335 332 330 326 329 330 331 331 333 335 338 340
332 333 332 337 333 333 335 329 326 324 327 327 327 326 329 330 330 332 334 340 345 345 345 346 347 347 347 345 345 345 343 340 337 335 334 334 334 333 333 332 331 329 330
337 337 338 345 347 349 349 342 342 344 333 332 332 332 330 332 337 338 336 337 339 341 341 340 339 338 338 341 342 342 341 340 338 337 335 332 332 331 331 333 331 330 328
336 337 338 340 344 351 350 352 357 354 352 350 347 345 347 347 345 346 347 348 345 342 340 334 334 334 334 334 334 335 337 336 335 334 333 333 332 331 331 332 332 331 329
337 336 336 336 336 336 336 337 339 346 351 350 350 349 350 348 350 351 351 350 345 344 337 336 334 334 334 334 334 334 333 334 334 334 333 333 332 332 333 334 334 334 334
337 336 335 334 333 334 333 332 330 330 331 334 344 348 350 350 347 344 342 343 339 341 337 335 334 334 334 334 334 334 334 334 335 336 336 337 337 337 336 336 335 334 335
333 333 334 335 334 333 332 331 331 330 329 329 332 339 342 345 346 345 344 341 337 335 336 336 336 336 336 337 338 339 339 339 339 339 339 338 338 338 338 335 335 336 333
333 334 333 331 331 330 330 328 328 328 328 329 330 330 332 333 334 334 337 336 334 333 333 334 336 338 339 339 339 338 338 338 337 337 337 337 337 335 334 334 333 332 332
329 329 328 327 327 327 327 325 326 326 328 329 330 331 331 330 330 330 331 333 333 334 335 337 338 338 339 338 338 337 336 335 334 333 333 334 334 333 334 333 333 332 332
324 324 324 324 324 324 324 324 323 323 324 324 325 328 329 330 329 330 332 333 335 337 337 336 336 336 336 336 335 334 335 334 334 333 331 331 330 331 331 331 330 330 330
321 320 320 321 321 321 320 320 320 320 321 322 323 324 326 328 330 331 332 333 334 335 336 335 335 335 336 337 337 336 334 334 334 333 331 331 331 331 330 330 330 328 327
322 322 322 322 321 320 320 321 322 323 323 323 325 326 327 328 329 330 330 331 332 333 333 334 335 335 334 335 336 336 335 333 332 332 331 330 329 329 328 328 328 327 327
324 323 322 322 321 321 321 322 322 323 324 324 324 325 325 325 325 326 327 328 328 329 331 331 332 332 333 333 333 333 333 332 332 330 330 329 328 328 327 326 325 326 327
327 326 325 324 323 323 322 321 321 321 321 322 323 323 323 323 324 324 325 325 326 326 327 328 329 329 330 330 331 331 331 330 330 330 330 329 328 326 326 324 325 325 326